Other Public Products
Issued by NWS Grand Forks, ND

Home | Current Version | Previous Version | Text Only | Print | Product List | Glossary Off
Versions: 1 2 3 4 5 6 7 8 9 10 11 12 13 14 15 16 17 18 19 20 21 22 23 24 25 26 27 28 29 30 31 32 33 34 35 36 37 38 39 40 41 42 43 44 45 46 47 48 49 50

000
FPUS83 KFGF 251510
OPUFGF
PRAIRIE TO PINES WEATHER ROUNDUP
NATIONAL WEATHER SERVICE EASTERN NORTH DAKOTA/GRAND FORKS ND
1000 AM CDT SAT APR 25 2015

 **SATELLITE DATA USED TO AUGMENT SKY COVER AT AUTOMATED STATIONS**
 *****  WEATHER ACROSS EASTERN NORTH DAKOTA  *****

CITY           SKY/WX    TMP DP  RH WIND       PRES   REMARKS
GRAND FORKS    CLOUDY    46  33  60 E7        29.89R
GRAND FORKS AF CLOUDY    46  33  60 SE9       29.89R
GRAND CITY NWS   N/A     45 N/A N/A E10         N/A
BUXTON         NOT AVBL
DEVILS LAKE    CLOUDY    46  34  61 E14       29.85S
FARGO          CLOUDY    46  37  71 E14       29.86R
WAHPETON ARPT  CLOUDY    45  36  70 E12       29.85R
$$

 *****  WEATHER ACROSS CENTRAL AND WESTERN NORTH DAKOTA  *****

CITY           SKY/WX    TMP DP  RH WIND       PRES   REMARKS
JAMESTOWN      CLOUDY    42  39  89 E12       29.83R FOG
BISMARCK       CLOUDY    45  41  86 E13       29.80R
MINOT          CLOUDY    44  40  85 SE15      29.81R
MINOT AFB      CLOUDY    43  43 100 SE15      29.81R
GARRISON         N/A     44  41  89 SE15      29.78S
WILLISTON      CLOUDY    49  41  74 SE16      29.73S
DICKINSON      FOG       42  41  96 E14       29.72R VSB 1/2
HETTINGER      FOG       43  42  97 E15       29.73S VSB 1
$$

 *****  OTHER OBSERVATIONS NORTHEAST NORTH DAKOTA  *****

CITY           SKY/WX    TMP DP  RH WIND       PRES   REMARKS
WALHALLA       CLOUDY    41  37  87 SE7       29.92S
LANGDON        CLOUDY    46  34  61 E13       29.87F
CAVALIER       CLOUDY    45  32  61 SE7       29.91F
GRAFTON        CLOUDY    46  34  61 E9        29.92R
CANDO          CLOUDY    46  34  61 SE14      29.87R
FORT TOTTEN      N/A     46  37  70 E7        29.95
ROLLA          FAIR      46  37  71 E10       29.88S
RUGBY          NOT AVBL
 ***** THE ABOVE OBSERVATIONS ARE NON NWS ARE NOT QUALITY
        CONTROLLED AND MAY MIS-REPORT RAIN FOR SNOW...
$$

 *****  OTHER OBSERVATIONS SOUTHEAST NORTH DAKOTA *****

CITY           SKY/WX    TMP DP  RH WIND       PRES   REMARKS
COOPERSTOWN    NOT AVBL
VALLEY CITY    CLOUDY    41  41 100 E13       29.85R
OAKES            N/A     41  41 100 E14       29.82R FOG
GWINNER        CLOUDY    43  43 100 E14       29.84R
SHEYENNE NWR     N/A     44  39  82 E10       29.95S
BUFFALO        NOT AVBL
WYNDMERE       NOT AVBL
 ***** THE ABOVE OBSERVATIONS ARE NON NWS ARE NOT QUALITY
       CONTROLLED AND MAY MIS-REPORT RAIN FOR SNOW...
$$

  *****  WEATHER ACROSS NORTHERN MINNESOTA  *****

CITY           SKY/WX    TMP DP  RH WIND       PRES   REMARKS
FLAG ISLAND    SUNNY     45  23  42 E7        29.97S
WARROAD        PTSUNNY   43  30  61 NE7       29.96S
ROSEAU         PTSUNNY   46  27  46 E8        29.95R
HALLOCK        SUNNY     50  30  46 E7        29.92S
THF RVR FALLS  PTSUNNY   46  30  53 E12       29.91R
HALSTAD        NOT AVBL
FOSSTON        CLOUDY    46  32  57 E7        29.90R
BAUDETTE       SUNNY     46  23  40 E9        29.96S
WASKISH        SUNNY     48  27  43 E8        29.94S
CROOKSTON      CLOUDY    48  34  57 E10       29.90S
$$
  *****  WEATHER ACROSS CENTRAL AND WEST MINNESOTA  *****

CITY           SKY/WX    TMP DP  RH WIND       PRES   REMARKS
BEMIDJI        SUNNY     45  28  52 E10       29.90S
PARK RAPIDS    CLOUDY    45  31  58 E13       29.88R
WADENA         MOSUNNY   43  34  70 E14       29.86R
DETROIT LAKES  PTSUNNY   45  36  70 SE14      29.87R
MOORHEAD       CLOUDY    45  36  70 SE8       29.88R
FERGUS FALLS   CLOUDY    45  34  65 SE12      29.87R
ELBOW LAKE     CLOUDY    42  38  86 E14       29.84S
MORRIS MN      MOSUNNY   43  41  93 E14       29.83R FOG
STAPLES        PTSUNNY   45  34  65 E9        29.87S
WHEATON        CLOUDY    39  37  93 E14       29.85R FOG
$$
  *****  WEATHER ELSEWHERE ACROSS MINNESOTA  *****

CITY           SKY/WX    TMP DP  RH WIND       PRES   REMARKS
DULUTH         CLOUDY    36  23  59 E15       29.96R
INTRNTL FALLS  PTSUNNY   44  19  36 E10       29.98R
ELY            CLOUDY    39   9  28 E7        29.98R
CLOQUET        CLOUDY    36  25  64 E13G18    29.96R
BRAINERD       CLOUDY    42  32  67 E8        29.90R
HIBBING        CLOUDY    41  21  44 E9        29.95R
ALEXANDRIA     CLOUDY    40  36  86 E13G21    29.86R
SAINT CLOUD    CLOUDY    44  36  73 E8        29.87R
MINNEAPOLIS    PTSUNNY   48  37  65 E16       29.86R
$$

  *****  WEATHER ACROSS SOUTH DAKOTA  *****

CITY           SKY/WX    TMP DP  RH WIND       PRES   REMARKS
SIOUX FALLS    CLOUDY    47  40  76 E16       29.73S
BROOKINGS      CLOUDY    45  39  81 E15       29.77R
WATERTOWN      CLOUDY    42  39  89 E14       29.78R FOG
HURON          CLOUDY    47  43  86 E10       29.76R FOG
SISSETON         N/A     43  42  97 SE14      29.82R
ABERDEEN       CLOUDY    46  42  86 E12       29.80R
MITCHELL       CLOUDY    48  45  89 E13       29.75R FOG
PIERRE         CLOUDY    46  45  96 E13       29.73R FOG
MOBRIDGE       CLOUDY    46  42  86 E13       29.74R
RAPID CITY     FOG       44  44 100 SW3       29.70S VSB 1
$$

  *****  SOME WEATHER IN NEARBY STATES *****

CITY           SKY/WX    TMP DP  RH WIND       PRES   REMARKS
GLASGOW MT     PTSUNNY   48  39  71 NW23G31   29.66R
GREAT FALLS MT CLOUDY    40  35  83 SW13      29.79R
CHEYENNE WY    SUNNY     55  31  39 NW9       29.75S
SCOTTSBLUFF NE SUNNY     55  32  41 CALM      29.72R
OMAHA NE       CLOUDY    48  46  93 NE14G20   29.60R
DES MOINES IA  LGT RAIN  46  42  86 E13       29.62R
DAVENPORT IA   LGT RAIN  44  41  89 E21G29    29.68R FOG
CHICAGO IL     LGT RAIN  43  39  86 E15       29.76F
EAU CLAIRE WI  CLOUDY    47  28  47 E14       29.87S
LA CROSSE WI   CLOUDY    45  36  70 E15       29.83S
$$

  *****  SOME NATIONAL WEATHER *****

CITY           SKY/WX    TMP DP  RH WIND       PRES   REMARKS
LA GUARDIA NY  PTSUNNY   48  23  37 NW14      29.87S
RALEIGH NC     CLOUDY    57  45  64 S3        29.91F
ATLANTA GA     CLOUDY    63  59  87 SE8       29.80F
NEW ORLEANS LA PTSUNNY   82  73  74 S17       29.78F
OKLAHOMA CITY  SUNNY     68  51  54 SW6       29.66R
ALBUQUERQUE NM MOSUNNY   51  36  56 SW9       29.98S
SALT LAKE CITY PTSUNNY   46  38  73 SE6       29.81S
LOS ANGELES CA PTSUNNY   57  52  82 W9        29.99S
BOISE ID       CLOUDY    45  36  70 CALM      29.81R
SEATTLE WA     PTSUNNY   44  39  82 S7        29.96R
$$

*** WEATHER ACROSS MANITOBA...SASKATCHEWAN AND ONTARIO ***
                ***ONTARIO***

CITY           SKY/WX    TMP DP  RH WIND       PRES   REMARKS
GERALDTON      MOSUNNY   37  18  44 VRB3      30.10F
THUNDER BAY    MOSUNNY   41  19  42 E9        30.07F
SIOUX LOOKOUT  PTSUNNY   41  19  42 SW5       30.05S
TORONTO        NOT AVBL
BIG TROUT LK   SUNNY     28  18  64 S3        30.18S
PICKLE LAKE    SUNNY     37  16  41 E7        30.11S
DRYDEN         CLOUDY    39  23  52 E3        30.03R
KENORA         PTSUNNY   43  21  42 SE10      30.00S
$$
                *** MANITOBA***

CITY           SKY/WX    TMP DP  RH WIND       PRES   REMARKS
BRANDON        PTSUNNY   45  36  70 E8        29.91S
DAUPHIN        PTSUNNY   45  34  65 E7        29.94R
ISLAND LAKE    PTSUNNY   34  18  51 SE12      30.09S
PILOT MOUND      N/A     46  34  61 E8          N/A
THE PAS        CLOUDY    28  25  86 N9        30.03S WCI  20
THOMPSON       LGT SNOW  27  25  93 NE6       30.07S WCI  20
WINNIPEG       MOSUNNY   46  28  49 E9        29.96S
LYNN LAKE      SUNNY     28  14  54 N7        30.11R WCI  21
CHURCHILL      CLOUDY    27  12  54 S9        30.25S WCI  17
GILLAM         MOSUNNY   34  19  55 SE8       30.14F
$$
                ***SASKATCHEWAN***

CITY           SKY/WX    TMP DP  RH WIND       PRES   REMARKS
ESTEVAN        CLOUDY    43  39  87 E20G26    29.78S FOG
KINDERSLEY     CLOUDY    30  28  93 NE16G22   29.81R WCI  19
LLOYDMINSTER   CLOUDY    32  19  59 NE18G24   29.91R WCI  20
PRINCE ALBERT  CLOUDY    28  21  74 E18       29.98R WCI  16
REGINA         CLOUDY    45  43  93 E17       29.75S FOG


USA.gov is the U.S. government's official web portal to all federal, state and local government web resources and services.